Home > Time Zones > World Clock > Weather > Germany > Ulm > Past weeks

Flag for Germany Weather past 2 weeks in Ulm, Baden-Württemberg, Germany

Now
43 °F

Passing clouds.


Feels Like: 41 °F
Forecast: 42 / 58 °F
Wind: 3 mph from Northwest

Location: Laupheim Airport

Current Time: Sep 22, 2014 at 9:12:49 PM

Latest Report: Sep 22, 2014 at 8:20 PM


Visibility: N/A

Pressure: 30.15 "Hg

Humidity: 100%

Dew point: 43 °F

Location of UlmLocation

Historic Weather in Ulm — Graph

°F

Ulm temperature yesterday

Maximum temperature yesterday: 64 °F (at 12:20 PM)
Minimum temperature yesterday: 54 °F (at 9:20 PM)
Average temperature yesterday: 58 °F

Past Weeks' High & Low Weather Summary

 TemperatureHumidityPressure
High77 °F (Sep 8, 2:20 PM)100% (Sep 8, 2:20 AM)30.15 "Hg (Sep 8, 2:20 AM)
Low45 °F (Sep 22, 7:20 PM)54% (Sep 8, 2:20 PM)29.92 "Hg (Sep 17, 3:20 PM)
Average59 °F88%30.02 "Hg
* Reported Sep 7 7:20 PM — Sep 22 7:20 PM, Ulm, Weather by CustomWeather, © 2014

Note: Actual official high and low records may vary slightly from our data, if they occured in-between our weather recording intervals... More about our weather records

Advertising

Ulm weather history for previous 24 hours

 ConditionsComfort  
Time TempWeatherWind HumidityBarometerVisibility
7:20 PM
Sep 22
45 °FScattered clouds.5 mph93%30.12 "HgN/A
6:20 PM52 °FThunderstorms. Partly sunny.12 mph67%30.09 "HgN/A
5:20 PM54 °FPartly sunny.12 mph63%30.07 "HgN/A
5:00 PM54 °FPartly sunny.13 mph63%30.07 "HgN/A
4:20 PM54 °FPartly sunny.13 mph67%30.07 "HgN/A
3:20 PM52 °FPartly sunny.3 mph77%30.07 "HgN/A
2:20 PM52 °FBroken clouds.6 mph77%30.07 "HgN/A
1:20 PM52 °FPartly sunny.9 mph82%30.07 "HgN/A
12:20 PM52 °FPartly sunny.13 mph82%30.09 "HgN/A
11:20 AM52 °FPartly sunny.10 mph82%30.12 "HgN/A
10:20 AM52 °FBroken clouds.10 mph77%30.12 "HgN/A
9:20 AM50 °FPassing clouds.9 mph88%30.12 "Hg5 mi
8:20 AM48 °FScattered clouds.6 mph94%30.12 "Hg4 mi
7:20 AM48 °FPassing clouds.6 mph94%30.12 "Hg4 mi
6:20 AM48 °FPassing clouds.3 mph100%30.09 "Hg5 mi
5:20 AM48 °FPassing clouds.5 mph100%30.09 "Hg5 mi
4:20 AM52 °FPassing clouds.3 mph88%30.07 "HgN/A
3:20 AM52 °FPassing clouds.5 mph94%30.07 "HgN/A
2:20 AM54 °FPassing clouds.3 mph94%30.07 "HgN/A
1:20 AM52 °FPassing clouds.1 mph100%30.07 "HgN/A
12:20 AM54 °FRain. Partly cloudy.3 mph94%30.07 "Hg4 mi
11:20 PM
Sep 21
54 °FLight rain. Partly cloudy.2 mph94%30.04 "HgN/A
10:20 PM54 °FLight rain. Partly cloudy.3 mph100%30.04 "HgN/A
9:20 PM54 °FLight rain. Passing clouds.3 mph100%30.01 "Hg6 mi
Weather by CustomWeather, © 2014

See weather overviewHow to use our weather pages